owner,sensor,date,latitude,longitude,air_temperature,qcFlag 
COMPS,ioos:station:USF.COMPS:C10:1,2017-05-01T00:05:00Z,27.1690,-82.9260,23.14,1111122 
COMPS,ioos:station:USF.COMPS:C10:1,2017-05-01T00:35:00Z,27.1690,-82.9260,23.01,1111122 
COMPS,ioos:station:USF.COMPS:C10:1,2017-05-01T01:05:00Z,27.1690,-82.9260,23.02,1111122 
COMPS,ioos:station:USF.COMPS:C10:1,2017-05-01T01:35:00Z,27.1690,-82.9260,23.0,1111122 
COMPS,ioos:station:USF.COMPS:C10:1,2017-05-01T02:05:00Z,27.1690,-82.9260,23.06,1111122 
COMPS,ioos:station:USF.COMPS:C10:1,2017-05-01T02:35:00Z,27.1690,-82.9260,22.99,1111122 
COMPS,ioos:station:USF.COMPS:C10:1,2017-05-01T03:05:00Z,27.1690,-82.9260,23.06,1111122 
COMPS,ioos:station:USF.COMPS:C10:1,2017-05-01T03:35:00Z,27.1690,-82.9260,22.96,1111122 
COMPS,ioos:station:USF.COMPS:C10:1,2017-05-01T04:05:00Z,27.1690,-82.9260,22.95,1111122 
COMPS,ioos:station:USF.COMPS:C10:1,2017-05-01T04:35:00Z,27.1690,-82.9260,23.21,1111122 
COMPS,ioos:station:USF.COMPS:C10:1,2017-05-01T05:05:00Z,27.1690,-82.9260,23.31,1111122 
COMPS,ioos:station:USF.COMPS:C10:1,2017-05-01T05:35:00Z,27.1690,-82.9260,23.2,1111122 
COMPS,ioos:station:USF.COMPS:C10:1,2017-05-01T06:05:00Z,27.1690,-82.9260,23.18,1111122 
COMPS,ioos:station:USF.COMPS:C10:1,2017-05-01T06:35:00Z,27.1690,-82.9260,23.1,1111122 
COMPS,ioos:station:USF.COMPS:C10:1,2017-05-01T07:05:00Z,27.1690,-82.9260,23.02,1111122 
COMPS,ioos:station:USF.COMPS:C10:1,2017-05-01T07:35:00Z,27.1690,-82.9260,23.04,1111122 
COMPS,ioos:station:USF.COMPS:C10:1,2017-05-01T08:05:00Z,27.1690,-82.9260,23.05,1111122 
COMPS,ioos:station:USF.COMPS:C10:1,2017-05-01T08:35:00Z,27.1690,-82.9260,22.97,1111122 
COMPS,ioos:station:USF.COMPS:C10:1,2017-05-01T09:05:00Z,27.1690,-82.9260,22.98,1111122 
COMPS,ioos:station:USF.COMPS:C10:1,2017-05-01T09:35:00Z,27.1690,-82.9260,22.98,1111122 
COMPS,ioos:station:USF.COMPS:C10:1,2017-05-01T10:05:00Z,27.1690,-82.9260,22.99,1111122 
COMPS,ioos:station:USF.COMPS:C10:1,2017-05-01T10:35:00Z,27.1690,-82.9260,23.06,1111122 
COMPS,ioos:station:USF.COMPS:C10:1,2017-05-01T11:05:00Z,27.1690,-82.9260,23.14,1111122 
COMPS,ioos:station:USF.COMPS:C10:1,2017-05-01T11:35:00Z,27.1690,-82.9260,23.18,1111122 
COMPS,ioos:station:USF.COMPS:C10:1,2017-05-01T12:05:00Z,27.1690,-82.9260,23.22,1111122 
COMPS,ioos:station:USF.COMPS:C10:1,2017-05-01T12:35:00Z,27.1690,-82.9260,23.21,1111122 
COMPS,ioos:station:USF.COMPS:C10:1,2017-05-01T13:05:00Z,27.1690,-82.9260,23.22,1111122 
COMPS,ioos:station:USF.COMPS:C10:1,2017-05-01T13:35:00Z,27.1690,-82.9260,23.1,1111122 
COMPS,ioos:station:USF.COMPS:C10:1,2017-05-01T14:05:00Z,27.1690,-82.9260,23.18,1111122 
COMPS,ioos:station:USF.COMPS:C10:1,2017-05-01T14:35:00Z,27.1690,-82.9260,22.99,1111122 
COMPS,ioos:station:USF.COMPS:C10:1,2017-05-01T15:05:00Z,27.1690,-82.9260,23.1,1111122 
COMPS,ioos:station:USF.COMPS:C10:1,2017-05-01T15:35:00Z,27.1690,-82.9260,23.2,1111122 
COMPS,ioos:station:USF.COMPS:C10:1,2017-05-01T16:05:00Z,27.1690,-82.9260,23.28,1111122 
COMPS,ioos:station:USF.COMPS:C10:1,2017-05-01T16:35:00Z,27.1690,-82.9260,23.34,1111122 
COMPS,ioos:station:USF.COMPS:C10:1,2017-05-01T17:05:00Z,27.1690,-82.9260,23.41,1111122 
COMPS,ioos:station:USF.COMPS:C10:1,2017-05-01T17:35:00Z,27.1690,-82.9260,23.48,1111122 
COMPS,ioos:station:USF.COMPS:C10:1,2017-05-01T18:05:00Z,27.1690,-82.9260,23.62,1111122 
COMPS,ioos:station:USF.COMPS:C10:1,2017-05-01T18:35:00Z,27.1690,-82.9260,23.71,1111122 
COMPS,ioos:station:USF.COMPS:C10:1,2017-05-01T19:05:00Z,27.1690,-82.9260,23.85,1111122 
COMPS,ioos:station:USF.COMPS:C10:1,2017-05-01T19:35:00Z,27.1690,-82.9260,21.63,1111122 
COMPS,ioos:station:USF.COMPS:C10:1,2017-05-01T20:05:00Z,27.1690,-82.9260,21.98,1111122 
COMPS,ioos:station:USF.COMPS:C10:1,2017-05-01T20:35:00Z,27.1690,-82.9260,22.52,1111122 
COMPS,ioos:station:USF.COMPS:C10:1,2017-05-01T21:05:00Z,27.1690,-82.9260,22.87,1111122 
COMPS,ioos:station:USF.COMPS:C10:1,2017-05-01T21:35:00Z,27.1690,-82.9260,23.18,1111122 
COMPS,ioos:station:USF.COMPS:C10:1,2017-05-01T22:05:00Z,27.1690,-82.9260,23.36,1111122 
COMPS,ioos:station:USF.COMPS:C10:1,2017-05-01T22:35:00Z,27.1690,-82.9260,23.72,1111122 
COMPS,ioos:station:USF.COMPS:C10:1,2017-05-01T23:05:00Z,27.1690,-82.9260,24.08,1111122 
COMPS,ioos:station:USF.COMPS:C10:1,2017-05-01T23:35:00Z,27.1690,-82.9260,24.34,1111122 
COMPS,ioos:station:USF.COMPS:C10:1,2017-05-02T00:05:00Z,27.1690,-82.9260,24.53,1111122 
COMPS,ioos:station:USF.COMPS:C10:1,2017-05-02T00:35:00Z,27.1690,-82.9260,24.51,1111122 
COMPS,ioos:station:USF.COMPS:C10:1,2017-05-02T01:05:00Z,27.1690,-82.9260,24.42,1111122 
COMPS,ioos:station:USF.COMPS:C10:1,2017-05-02T01:35:00Z,27.1690,-82.9260,24.4,1111122 
COMPS,ioos:station:USF.COMPS:C10:1,2017-05-02T02:05:00Z,27.1690,-82.9260,24.4,1111122 
COMPS,ioos:station:USF.COMPS:C10:1,2017-05-02T02:35:00Z,27.1690,-82.9260,24.57,1111122 
COMPS,ioos:station:USF.COMPS:C10:1,2017-05-02T03:05:00Z,27.1690,-82.9260,24.88,1111122 
COMPS,ioos:station:USF.COMPS:C10:1,2017-05-02T03:35:00Z,27.1690,-82.9260,25.2,1111122 
COMPS,ioos:station:USF.COMPS:C10:1,2017-05-02T04:05:00Z,27.1690,-82.9260,25.36,1111122 
COMPS,ioos:station:USF.COMPS:C10:1,2017-05-02T04:35:00Z,27.1690,-82.9260,25.22,1111122 
COMPS,ioos:station:USF.COMPS:C10:1,2017-05-02T05:05:00Z,27.1690,-82.9260,25.19,1111122 
COMPS,ioos:station:USF.COMPS:C10:1,2017-05-02T05:35:00Z,27.1690,-82.9260,25.35,1111122 
COMPS,ioos:station:USF.COMPS:C10:1,2017-05-02T06:05:00Z,27.1690,-82.9260,25.4,1111122 
COMPS,ioos:station:USF.COMPS:C10:1,2017-05-02T06:35:00Z,27.1690,-82.9260,25.45,1111122 
COMPS,ioos:station:USF.COMPS:C10:1,2017-05-02T07:05:00Z,27.1690,-82.9260,25.35,1111122 
COMPS,ioos:station:USF.COMPS:C10:1,2017-05-02T07:35:00Z,27.1690,-82.9260,25.25,1111122 
COMPS,ioos:station:USF.COMPS:C10:1,2017-05-02T08:05:00Z,27.1690,-82.9260,25.12,1111122 
COMPS,ioos:station:USF.COMPS:C10:1,2017-05-02T08:35:00Z,27.1690,-82.9260,24.96,1111122 
COMPS,ioos:station:USF.COMPS:C10:1,2017-05-02T09:05:00Z,27.1690,-82.9260,24.61,1111122 
COMPS,ioos:station:USF.COMPS:C10:1,2017-05-02T09:35:00Z,27.1690,-82.9260,24.17,1111122 
COMPS,ioos:station:USF.COMPS:C10:1,2017-05-02T10:05:00Z,27.1690,-82.9260,23.42,1111122 
COMPS,ioos:station:USF.COMPS:C10:1,2017-05-02T10:35:00Z,27.1690,-82.9260,23.74,1111122 
COMPS,ioos:station:USF.COMPS:C10:1,2017-05-02T11:05:00Z,27.1690,-82.9260,23.7,1111122 
COMPS,ioos:station:USF.COMPS:C10:1,2017-05-02T11:35:00Z,27.1690,-82.9260,22.23,1111122 
COMPS,ioos:station:USF.COMPS:C10:1,2017-05-02T12:05:00Z,27.1690,-82.9260,18.17,1111122 
COMPS,ioos:station:USF.COMPS:C10:1,2017-05-02T12:35:00Z,27.1690,-82.9260,19.17,1111122 
COMPS,ioos:station:USF.COMPS:C10:1,2017-05-02T13:05:00Z,27.1690,-82.9260,18.89,1111122 
COMPS,ioos:station:USF.COMPS:C10:1,2017-05-02T13:35:00Z,27.1690,-82.9260,17.89,1111122 
COMPS,ioos:station:USF.COMPS:C10:1,2017-05-02T14:05:00Z,27.1690,-82.9260,15.3,1111122 
COMPS,ioos:station:USF.COMPS:C10:1,2017-05-02T14:35:00Z,27.1690,-82.9260,15.73,1111122 
COMPS,ioos:station:USF.COMPS:C10:1,2017-05-02T15:05:00Z,27.1690,-82.9260,18.61,1111122 
COMPS,ioos:station:USF.COMPS:C10:1,2017-05-02T15:35:00Z,27.1690,-82.9260,19.72,1111122 
COMPS,ioos:station:USF.COMPS:C10:1,2017-05-02T16:05:00Z,27.1690,-82.9260,20.0,1111122 
COMPS,ioos:station:USF.COMPS:C10:1,2017-05-02T16:35:00Z,27.1690,-82.9260,19.3,1111122 
COMPS,ioos:station:USF.COMPS:C10:1,2017-05-02T17:05:00Z,27.1690,-82.9260,21.4,1111122 
COMPS,ioos:station:USF.COMPS:C10:1,2017-05-02T17:35:00Z,27.1690,-82.9260,22.66,1111122 
COMPS,ioos:station:USF.COMPS:C10:1,2017-05-02T21:05:00Z,27.1690,-82.9260,22.19,1111122 
COMPS,ioos:station:USF.COMPS:C10:1,2017-05-02T21:35:00Z,27.1690,-82.9260,23.0,1111122 
COMPS,ioos:station:USF.COMPS:C10:1,2017-05-02T22:05:00Z,27.1690,-82.9260,23.25,1111122 
COMPS,ioos:station:USF.COMPS:C10:1,2017-05-02T22:35:00Z,27.1690,-82.9260,23.71,1111122 
COMPS,ioos:station:USF.COMPS:C10:1,2017-05-03T00:05:00Z,27.1690,-82.9260,24.5,1111122 
COMPS,ioos:station:USF.COMPS:C10:1,2017-05-03T00:35:00Z,27.1690,-82.9260,24.42,1111122 
COMPS,ioos:station:USF.COMPS:C10:1,2017-05-03T01:05:00Z,27.1690,-82.9260,24.85,1111122 
COMPS,ioos:station:USF.COMPS:C10:1,2017-05-03T03:05:00Z,27.1690,-82.9260,25.32,1111122 
COMPS,ioos:station:USF.COMPS:C10:1,2017-05-03T03:35:00Z,27.1690,-82.9260,25.13,1111122 
COMPS,ioos:station:USF.COMPS:C10:1,2017-05-03T04:05:00Z,27.1690,-82.9260,24.5,1111122 
COMPS,ioos:station:USF.COMPS:C10:1,2017-05-03T04:35:00Z,27.1690,-82.9260,23.96,1111122 
COMPS,ioos:station:USF.COMPS:C10:1,2017-05-03T05:05:00Z,27.1690,-82.9260,23.4,1111122 
COMPS,ioos:station:USF.COMPS:C10:1,2017-05-03T05:35:00Z,27.1690,-82.9260,24.18,1111122 
COMPS,ioos:station:USF.COMPS:C10:1,2017-05-03T06:05:00Z,27.1690,-82.9260,24.42,1111122 
COMPS,ioos:station:USF.COMPS:C10:1,2017-05-03T06:35:00Z,27.1690,-82.9260,24.55,1111122 
COMPS,ioos:station:USF.COMPS:C10:1,2017-05-03T07:05:00Z,27.1690,-82.9260,24.29,1111122 
COMPS,ioos:station:USF.COMPS:C10:1,2017-05-03T07:35:00Z,27.1690,-82.9260,23.92,1111122 
COMPS,ioos:station:USF.COMPS:C10:1,2017-05-03T08:05:00Z,27.1690,-82.9260,23.57,1111122 
COMPS,ioos:station:USF.COMPS:C10:1,2017-05-03T08:35:00Z,27.1690,-82.9260,23.27,1111122 
COMPS,ioos:station:USF.COMPS:C10:1,2017-05-03T09:05:00Z,27.1690,-82.9260,23.05,1111122 
COMPS,ioos:station:USF.COMPS:C10:1,2017-05-03T09:35:00Z,27.1690,-82.9260,22.7,1111122 
COMPS,ioos:station:USF.COMPS:C10:1,2017-05-03T10:05:00Z,27.1690,-82.9260,22.33,1111122 
COMPS,ioos:station:USF.COMPS:C10:1,2017-05-03T10:35:00Z,27.1690,-82.9260,21.96,1111122 
COMPS,ioos:station:USF.COMPS:C10:1,2017-05-03T11:05:00Z,27.1690,-82.9260,21.72,1111122 
COMPS,ioos:station:USF.COMPS:C10:1,2017-05-03T11:35:00Z,27.1690,-82.9260,21.57,1111122 
COMPS,ioos:station:USF.COMPS:C10:1,2017-05-03T12:05:00Z,27.1690,-82.9260,21.51,1111122 
COMPS,ioos:station:USF.COMPS:C10:1,2017-05-03T12:35:00Z,27.1690,-82.9260,21.19,1111122 
COMPS,ioos:station:USF.COMPS:C10:1,2017-05-03T13:05:00Z,27.1690,-82.9260,20.89,1111122 
COMPS,ioos:station:USF.COMPS:C10:1,2017-05-03T13:35:00Z,27.1690,-82.9260,20.78,1111122 
COMPS,ioos:station:USF.COMPS:C10:1,2017-05-03T14:05:00Z,27.1690,-82.9260,19.89,1111122 
COMPS,ioos:station:USF.COMPS:C10:1,2017-05-03T14:35:00Z,27.1690,-82.9260,19.56,1111122 
COMPS,ioos:station:USF.COMPS:C10:1,2017-05-03T15:05:00Z,27.1690,-82.9260,19.82,1111122 
COMPS,ioos:station:USF.COMPS:C10:1,2017-05-03T15:35:00Z,27.1690,-82.9260,19.92,1111122 
COMPS,ioos:station:USF.COMPS:C10:1,2017-05-03T16:05:00Z,27.1690,-82.9260,20.35,1111122 
COMPS,ioos:station:USF.COMPS:C10:1,2017-05-03T16:35:00Z,27.1690,-82.9260,20.38,1111122 
COMPS,ioos:station:USF.COMPS:C10:1,2017-05-03T17:05:00Z,27.1690,-82.9260,20.39,1111122 
COMPS,ioos:station:USF.COMPS:C10:1,2017-05-03T17:35:00Z,27.1690,-82.9260,20.18,1111122 
COMPS,ioos:station:USF.COMPS:C10:1,2017-05-03T18:05:00Z,27.1690,-82.9260,20.28,1111122 
COMPS,ioos:station:USF.COMPS:C10:1,2017-05-03T18:35:00Z,27.1690,-82.9260,19.99,1111122 
COMPS,ioos:station:USF.COMPS:C10:1,2017-05-03T19:05:00Z,27.1690,-82.9260,19.94,1111122 
COMPS,ioos:station:USF.COMPS:C10:1,2017-05-03T19:35:00Z,27.1690,-82.9260,19.78,1111122 
COMPS,ioos:station:USF.COMPS:C10:1,2017-05-03T20:05:00Z,27.1690,-82.9260,19.79,1111122 
COMPS,ioos:station:USF.COMPS:C10:1,2017-05-03T20:35:00Z,27.1690,-82.9260,19.41,1111122 
COMPS,ioos:station:USF.COMPS:C10:1,2017-05-03T21:05:00Z,27.1690,-82.9260,19.27,1111122 
COMPS,ioos:station:USF.COMPS:C10:1,2017-05-03T21:35:00Z,27.1690,-82.9260,19.26,1111122 
COMPS,ioos:station:USF.COMPS:C10:1,2017-05-03T22:05:00Z,27.1690,-82.9260,19.03,1111122 
COMPS,ioos:station:USF.COMPS:C10:1,2017-05-03T22:35:00Z,27.1690,-82.9260,19.0,1111122 
COMPS,ioos:station:USF.COMPS:C10:1,2017-05-03T23:05:00Z,27.1690,-82.9260,19.05,1111122 
COMPS,ioos:station:USF.COMPS:C10:1,2017-05-03T23:35:00Z,27.1690,-82.9260,19.1,1111122 
COMPS,ioos:station:USF.COMPS:C10:1,2017-05-04T00:05:00Z,27.1690,-82.9260,19.21,1111122 
COMPS,ioos:station:USF.COMPS:C10:1,2017-05-04T00:35:00Z,27.1690,-82.9260,19.04,1111122 
COMPS,ioos:station:USF.COMPS:C10:1,2017-05-04T01:05:00Z,27.1690,-82.9260,19.15,1111122 
COMPS,ioos:station:USF.COMPS:C10:1,2017-05-04T01:35:00Z,27.1690,-82.9260,19.24,1111122 
COMPS,ioos:station:USF.COMPS:C10:1,2017-05-04T02:05:00Z,27.1690,-82.9260,19.21,1111122 
COMPS,ioos:station:USF.COMPS:C10:1,2017-05-04T02:35:00Z,27.1690,-82.9260,19.29,1111122 
COMPS,ioos:station:USF.COMPS:C10:1,2017-05-04T03:05:00Z,27.1690,-82.9260,19.41,1111122 
COMPS,ioos:station:USF.COMPS:C10:1,2017-05-04T03:35:00Z,27.1690,-82.9260,19.46,1111122 
COMPS,ioos:station:USF.COMPS:C10:1,2017-05-04T04:05:00Z,27.1690,-82.9260,19.81,1111122 
COMPS,ioos:station:USF.COMPS:C10:1,2017-05-04T04:35:00Z,27.1690,-82.9260,20.01,1111122 
COMPS,ioos:station:USF.COMPS:C10:1,2017-05-04T05:05:00Z,27.1690,-82.9260,20.16,1111122 
COMPS,ioos:station:USF.COMPS:C10:1,2017-05-04T05:35:00Z,27.1690,-82.9260,20.31,1111122 
COMPS,ioos:station:USF.COMPS:C10:1,2017-05-04T06:05:00Z,27.1690,-82.9260,20.48,1111122 
COMPS,ioos:station:USF.COMPS:C10:1,2017-05-04T06:35:00Z,27.1690,-82.9260,20.51,1111122 
COMPS,ioos:station:USF.COMPS:C10:1,2017-05-04T07:05:00Z,27.1690,-82.9260,20.51,1111122 
COMPS,ioos:station:USF.COMPS:C10:1,2017-05-04T07:35:00Z,27.1690,-82.9260,20.6,1111122 
COMPS,ioos:station:USF.COMPS:C10:1,2017-05-04T08:05:00Z,27.1690,-82.9260,20.58,1111122 
COMPS,ioos:station:USF.COMPS:C10:1,2017-05-04T08:35:00Z,27.1690,-82.9260,20.61,1111122 
COMPS,ioos:station:USF.COMPS:C10:1,2017-05-04T09:05:00Z,27.1690,-82.9260,20.55,1111122 
COMPS,ioos:station:USF.COMPS:C10:1,2017-05-04T09:35:00Z,27.1690,-82.9260,20.92,1111122 
COMPS,ioos:station:USF.COMPS:C10:1,2017-05-04T10:05:00Z,27.1690,-82.9260,20.84,1111122 
COMPS,ioos:station:USF.COMPS:C10:1,2017-05-04T10:35:00Z,27.1690,-82.9260,20.96,1111122 
COMPS,ioos:station:USF.COMPS:C10:1,2017-05-04T11:05:00Z,27.1690,-82.9260,21.07,1111122 
COMPS,ioos:station:USF.COMPS:C10:1,2017-05-04T11:35:00Z,27.1690,-82.9260,21.07,1111122 
COMPS,ioos:station:USF.COMPS:C10:1,2017-05-04T12:05:00Z,27.1690,-82.9260,21.04,1111122 
COMPS,ioos:station:USF.COMPS:C10:1,2017-05-04T12:35:00Z,27.1690,-82.9260,21.04,1111122 
COMPS,ioos:station:USF.COMPS:C10:1,2017-05-04T13:05:00Z,27.1690,-82.9260,20.93,1111122 
COMPS,ioos:station:USF.COMPS:C10:1,2017-05-04T13:35:00Z,27.1690,-82.9260,21.0,1111122 
COMPS,ioos:station:USF.COMPS:C10:1,2017-05-04T14:05:00Z,27.1690,-82.9260,21.03,1111122 
COMPS,ioos:station:USF.COMPS:C10:1,2017-05-04T14:35:00Z,27.1690,-82.9260,21.04,1111122 
COMPS,ioos:station:USF.COMPS:C10:1,2017-05-04T15:05:00Z,27.1690,-82.9260,21.04,1111122 
COMPS,ioos:station:USF.COMPS:C10:1,2017-05-04T15:35:00Z,27.1690,-82.9260,20.92,1111122 
COMPS,ioos:station:USF.COMPS:C10:1,2017-05-04T16:05:00Z,27.1690,-82.9260,20.84,1111122 
COMPS,ioos:station:USF.COMPS:C10:1,2017-05-04T16:35:00Z,27.1690,-82.9260,18.95,1111122 
COMPS,ioos:station:USF.COMPS:C10:1,2017-05-04T17:05:00Z,27.1690,-82.9260,17.75,1111122 
COMPS,ioos:station:USF.COMPS:C10:1,2017-05-04T17:35:00Z,27.1690,-82.9260,17.54,1111122 
COMPS,ioos:station:USF.COMPS:C10:1,2017-05-04T18:05:00Z,27.1690,-82.9260,17.08,1111122 
COMPS,ioos:station:USF.COMPS:C10:1,2017-05-04T18:35:00Z,27.1690,-82.9260,16.61,1111122 
COMPS,ioos:station:USF.COMPS:C10:1,2017-05-04T19:05:00Z,27.1690,-82.9260,16.2,1111122 
COMPS,ioos:station:USF.COMPS:C10:1,2017-05-04T19:35:00Z,27.1690,-82.9260,15.58,1111122 
COMPS,ioos:station:USF.COMPS:C10:1,2017-05-04T20:05:00Z,27.1690,-82.9260,15.16,1111122 
COMPS,ioos:station:USF.COMPS:C10:1,2017-05-04T20:35:00Z,27.1690,-82.9260,14.62,1111122 
COMPS,ioos:station:USF.COMPS:C10:1,2017-05-04T21:05:00Z,27.1690,-82.9260,14.01,1111122 
COMPS,ioos:station:USF.COMPS:C10:1,2017-05-04T21:35:00Z,27.1690,-82.9260,13.5,1111122 
COMPS,ioos:station:USF.COMPS:C10:1,2017-05-04T22:05:00Z,27.1690,-82.9260,14.57,1111122 
COMPS,ioos:station:USF.COMPS:C10:1,2017-05-04T22:35:00Z,27.1690,-82.9260,12.87,1111122 
COMPS,ioos:station:USF.COMPS:C10:1,2017-05-04T23:05:00Z,27.1690,-82.9260,9.48,1111122 
COMPS,ioos:station:USF.COMPS:C10:1,2017-05-04T23:35:00Z,27.1690,-82.9260,8.45,1111122 
COMPS,ioos:station:USF.COMPS:C10:1,2017-05-05T00:05:00Z,27.1690,-82.9260,9.12,1111122 
COMPS,ioos:station:USF.COMPS:C10:1,2017-05-05T00:35:00Z,27.1690,-82.9260,9.26,1111122 
COMPS,ioos:station:USF.COMPS:C10:1,2017-05-05T01:05:00Z,27.1690,-82.9260,9.48,1111122 
COMPS,ioos:station:USF.COMPS:C10:1,2017-05-05T01:35:00Z,27.1690,-82.9260,8.57,1111122 
COMPS,ioos:station:USF.COMPS:C10:1,2017-05-05T02:05:00Z,27.1690,-82.9260,8.74,1111122 
COMPS,ioos:station:USF.COMPS:C10:1,2017-05-05T02:35:00Z,27.1690,-82.9260,8.48,1111122 
COMPS,ioos:station:USF.COMPS:C10:1,2017-05-05T03:05:00Z,27.1690,-82.9260,8.37,1111122 
COMPS,ioos:station:USF.COMPS:C10:1,2017-05-05T03:35:00Z,27.1690,-82.9260,7.87,1111122 
COMPS,ioos:station:USF.COMPS:C10:1,2017-05-05T04:05:00Z,27.1690,-82.9260,7.24,1111122 
COMPS,ioos:station:USF.COMPS:C10:1,2017-05-05T04:35:00Z,27.1690,-82.9260,7.83,1111122 
COMPS,ioos:station:USF.COMPS:C10:1,2017-05-05T05:05:00Z,27.1690,-82.9260,8.39,1111122 
COMPS,ioos:station:USF.COMPS:C10:1,2017-05-05T05:35:00Z,27.1690,-82.9260,4.43,1111122 
COMPS,ioos:station:USF.COMPS:C10:1,2017-05-05T06:05:00Z,27.1690,-82.9260,3.62,1111122 
COMPS,ioos:station:USF.COMPS:C10:1,2017-05-05T06:35:00Z,27.1690,-82.9260,4.06,1111122 
COMPS,ioos:station:USF.COMPS:C10:1,2017-05-05T07:05:00Z,27.1690,-82.9260,3.71,1111122 
COMPS,ioos:station:USF.COMPS:C10:1,2017-05-05T07:35:00Z,27.1690,-82.9260,3.27,1111122 
COMPS,ioos:station:USF.COMPS:C10:1,2017-05-05T08:05:00Z,27.1690,-82.9260,2.19,1111122 
COMPS,ioos:station:USF.COMPS:C10:1,2017-05-05T08:35:00Z,27.1690,-82.9260,5.25,1111122 
COMPS,ioos:station:USF.COMPS:C10:1,2017-05-05T09:05:00Z,27.1690,-82.9260,0.39,1111122 
COMPS,ioos:station:USF.COMPS:C10:1,2017-05-05T09:35:00Z,27.1690,-82.9260,1.54,1111122 
COMPS,ioos:station:USF.COMPS:C10:1,2017-05-05T10:05:00Z,27.1690,-82.9260,3.21,1111122 
COMPS,ioos:station:USF.COMPS:C10:1,2017-05-05T10:35:00Z,27.1690,-82.9260,4.86,1111122 
COMPS,ioos:station:USF.COMPS:C10:1,2017-05-05T11:05:00Z,27.1690,-82.9260,5.43,1111122 
COMPS,ioos:station:USF.COMPS:C10:1,2017-05-05T11:35:00Z,27.1690,-82.9260,4.39,1111122 
COMPS,ioos:station:USF.COMPS:C10:1,2017-05-05T12:05:00Z,27.1690,-82.9260,3.41,1111122 
COMPS,ioos:station:USF.COMPS:C10:1,2017-05-05T12:35:00Z,27.1690,-82.9260,2.98,1111122 
COMPS,ioos:station:USF.COMPS:C10:1,2017-05-05T13:05:00Z,27.1690,-82.9260,3.81,1111122 
COMPS,ioos:station:USF.COMPS:C10:1,2017-05-05T13:35:00Z,27.1690,-82.9260,4.38,1111122 
COMPS,ioos:station:USF.COMPS:C10:1,2017-05-05T14:05:00Z,27.1690,-82.9260,4.04,1111122 
COMPS,ioos:station:USF.COMPS:C10:1,2017-05-05T14:35:00Z,27.1690,-82.9260,3.99,1111122 
COMPS,ioos:station:USF.COMPS:C10:1,2017-05-05T16:05:00Z,27.1690,-82.9260,3.92,1111122 
COMPS,ioos:station:USF.COMPS:C10:1,2017-05-05T16:35:00Z,27.1690,-82.9260,3.68,1111122 
COMPS,ioos:station:USF.COMPS:C10:1,2017-05-05T17:05:00Z,27.1690,-82.9260,3.81,1111122 
COMPS,ioos:station:USF.COMPS:C10:1,2017-05-05T17:35:00Z,27.1690,-82.9260,2.04,1111122 
COMPS,ioos:station:USF.COMPS:C10:1,2017-05-05T18:05:00Z,27.1690,-82.9260,2.04,1111122 
COMPS,ioos:station:USF.COMPS:C10:1,2017-05-05T18:35:00Z,27.1690,-82.9260,3.7,1111122 
COMPS,ioos:station:USF.COMPS:C10:1,2017-05-05T19:05:00Z,27.1690,-82.9260,4.51,1111122 
COMPS,ioos:station:USF.COMPS:C10:1,2017-05-05T19:35:00Z,27.1690,-82.9260,7.09,1111122 
COMPS,ioos:station:USF.COMPS:C10:1,2017-05-05T20:05:00Z,27.1690,-82.9260,9.11,1111122 
COMPS,ioos:station:USF.COMPS:C10:1,2017-05-05T20:35:00Z,27.1690,-82.9260,9.94,1111122 
COMPS,ioos:station:USF.COMPS:C10:1,2017-05-05T21:05:00Z,27.1690,-82.9260,11.01,1111122 
COMPS,ioos:station:USF.COMPS:C10:1,2017-05-05T21:35:00Z,27.1690,-82.9260,12.66,1111122 
COMPS,ioos:station:USF.COMPS:C10:1,2017-05-05T22:05:00Z,27.1690,-82.9260,13.8,1111122 
COMPS,ioos:station:USF.COMPS:C10:1,2017-05-05T22:35:00Z,27.1690,-82.9260,14.96,1111122 
COMPS,ioos:station:USF.COMPS:C10:1,2017-05-05T23:05:00Z,27.1690,-82.9260,15.71,1111122 
COMPS,ioos:station:USF.COMPS:C10:1,2017-05-05T23:35:00Z,27.1690,-82.9260,16.76,1111122 
COMPS,ioos:station:USF.COMPS:C10:1,2017-05-06T00:05:00Z,27.1690,-82.9260,17.56,1111122 
COMPS,ioos:station:USF.COMPS:C10:1,2017-05-06T00:35:00Z,27.1690,-82.9260,18.08,1111122 
COMPS,ioos:station:USF.COMPS:C10:1,2017-05-06T01:05:00Z,27.1690,-82.9260,19.38,1111122 
COMPS,ioos:station:USF.COMPS:C10:1,2017-05-06T01:35:00Z,27.1690,-82.9260,19.9,1111122 
COMPS,ioos:station:USF.COMPS:C10:1,2017-05-06T02:05:00Z,27.1690,-82.9260,18.27,1111122 
COMPS,ioos:station:USF.COMPS:C10:1,2017-05-06T02:35:00Z,27.1690,-82.9260,17.53,1111122 
COMPS,ioos:station:USF.COMPS:C10:1,2017-05-06T03:05:00Z,27.1690,-82.9260,17.55,1111122 
COMPS,ioos:station:USF.COMPS:C10:1,2017-05-06T03:35:00Z,27.1690,-82.9260,18.08,1111122 
COMPS,ioos:station:USF.COMPS:C10:1,2017-05-06T04:05:00Z,27.1690,-82.9260,18.55,1111122 
COMPS,ioos:station:USF.COMPS:C10:1,2017-05-06T04:35:00Z,27.1690,-82.9260,21.33,1111122 
COMPS,ioos:station:USF.COMPS:C10:1,2017-05-06T05:05:00Z,27.1690,-82.9260,21.87,1111122 
COMPS,ioos:station:USF.COMPS:C10:1,2017-05-06T05:35:00Z,27.1690,-82.9260,20.9,1111122 
COMPS,ioos:station:USF.COMPS:C10:1,2017-05-06T06:05:00Z,27.1690,-82.9260,19.35,1111122 
COMPS,ioos:station:USF.COMPS:C10:1,2017-05-06T06:35:00Z,27.1690,-82.9260,16.86,1111122 
COMPS,ioos:station:USF.COMPS:C10:1,2017-05-06T07:05:00Z,27.1690,-82.9260,17.72,1111122 
COMPS,ioos:station:USF.COMPS:C10:1,2017-05-06T07:35:00Z,27.1690,-82.9260,17.68,1111122 
COMPS,ioos:station:USF.COMPS:C10:1,2017-05-06T08:05:00Z,27.1690,-82.9260,19.17,1111122 
COMPS,ioos:station:USF.COMPS:C10:1,2017-05-06T08:35:00Z,27.1690,-82.9260,18.63,1111122 
COMPS,ioos:station:USF.COMPS:C10:1,2017-05-06T11:05:00Z,27.1690,-82.9260,19.62,1111122 
COMPS,ioos:station:USF.COMPS:C10:1,2017-05-06T11:35:00Z,27.1690,-82.9260,19.77,1111122 
COMPS,ioos:station:USF.COMPS:C10:1,2017-05-06T12:05:00Z,27.1690,-82.9260,19.92,1111122 
COMPS,ioos:station:USF.COMPS:C10:1,2017-05-06T12:35:00Z,27.1690,-82.9260,19.91,1111122 
COMPS,ioos:station:USF.COMPS:C10:1,2017-05-06T13:05:00Z,27.1690,-82.9260,19.98,1111122 
COMPS,ioos:station:USF.COMPS:C10:1,2017-05-06T13:35:00Z,27.1690,-82.9260,20.12,1111122 
COMPS,ioos:station:USF.COMPS:C10:1,2017-05-06T14:05:00Z,27.1690,-82.9260,20.13,1111122 
COMPS,ioos:station:USF.COMPS:C10:1,2017-05-06T14:35:00Z,27.1690,-82.9260,20.11,1111122 
COMPS,ioos:station:USF.COMPS:C10:1,2017-05-06T15:05:00Z,27.1690,-82.9260,20.17,1111122 
COMPS,ioos:station:USF.COMPS:C10:1,2017-05-06T15:35:00Z,27.1690,-82.9260,20.08,1111122 
COMPS,ioos:station:USF.COMPS:C10:1,2017-05-06T16:05:00Z,27.1690,-82.9260,20.0,1111122 
COMPS,ioos:station:USF.COMPS:C10:1,2017-05-06T16:35:00Z,27.1690,-82.9260,20.16,1111122 
COMPS,ioos:station:USF.COMPS:C10:1,2017-05-06T17:05:00Z,27.1690,-82.9260,20.15,1111122 
COMPS,ioos:station:USF.COMPS:C10:1,2017-05-06T17:35:00Z,27.1690,-82.9260,20.27,1111122 
COMPS,ioos:station:USF.COMPS:C10:1,2017-05-06T18:05:00Z,27.1690,-82.9260,20.19,1111122 
COMPS,ioos:station:USF.COMPS:C10:1,2017-05-06T18:35:00Z,27.1690,-82.9260,20.48,1111122 
COMPS,ioos:station:USF.COMPS:C10:1,2017-05-06T19:05:00Z,27.1690,-82.9260,20.6,1111122 
COMPS,ioos:station:USF.COMPS:C10:1,2017-05-06T19:35:00Z,27.1690,-82.9260,20.64,1111122 
COMPS,ioos:station:USF.COMPS:C10:1,2017-05-06T20:05:00Z,27.1690,-82.9260,20.78,1111122 
COMPS,ioos:station:USF.COMPS:C10:1,2017-05-06T20:35:00Z,27.1690,-82.9260,20.7,1111122 
COMPS,ioos:station:USF.COMPS:C10:1,2017-05-06T21:05:00Z,27.1690,-82.9260,20.64,1111122 
COMPS,ioos:station:USF.COMPS:C10:1,2017-05-06T21:35:00Z,27.1690,-82.9260,20.49,1111122 
COMPS,ioos:station:USF.COMPS:C10:1,2017-05-06T22:05:00Z,27.1690,-82.9260,20.57,1111122 
COMPS,ioos:station:USF.COMPS:C10:1,2017-05-06T22:35:00Z,27.1690,-82.9260,20.5,1111122 
COMPS,ioos:station:USF.COMPS:C10:1,2017-05-06T23:05:00Z,27.1690,-82.9260,20.4,1111122 
COMPS,ioos:station:USF.COMPS:C10:1,2017-05-06T23:35:00Z,27.1690,-82.9260,20.27,1111122 
COMPS,ioos:station:USF.COMPS:C10:1,2017-05-07T00:05:00Z,27.1690,-82.9260,19.98,1111122 